パンスターズ彗星

C/2017 U5 ( PanSTARRS )

English version
Home page
Updated on March 3, 2018

---------------------------------------------------------------------

・ プロフィール

発見日 2017年10月30日
発見光度 21.3等
発見者 Pan-STARRS 1 telescope (Haleakala)

・ 軌道要素

Epoch 2018 Jan. 2.0 TT = JDT 2458120.5
T 2017 Dec. 19.03888 TT                                 MPCW
q   4.3268033            (2000.0)            P               Q
n   0.01414052     Peri.  262.14042     +0.40296002     -0.91034123
a  16.9365802      Node   163.11560     +0.91408289     +0.39518418
e   0.7445291      Incl.   18.95664     +0.04555981     +0.12291582
P  69.70
From 84 observations 2017 Oct. 30-2018 Feb. 5, mean residual 0".4.

・ 光度変化

        m1 = 11.0 + 5 logΔ + 10.0 log r

---------------------------------------------------------------------

軌道要素はM.P.E.C. 2018-D91に掲載されたものです。
光度グラフはComet for Windowsで作成したものです。

---------------------------------------------------------------------

Copyright(C) Seiichi Yoshida (comet@aerith.net). All rights reserved.